Weather History for LFMP - December, 2012

Change the Weather History Date:

Friday, December 28, 2012

  Actual Average Record
Temperature  
Mean Temperature 54 °F -  
Max Temperature 66 °F 52 °F 66 °F (2012)
Min Temperature 42 °F 38 °F 28 °F (1996)
Degree Days  
Heating Degree Days 11    
Growing Degree Days 4 (Base 50)    
Moisture  
Dew Point 45 °F    
Average Humidity 68    
Maximum Humidity 93    
Minimum Humidity 42    
Precipitation  
Precipitation 0.00 in 0.07 in - ()
Sea Level Pressure  
Sea Level Pressure 30.39 in    
Wind  
Wind Speed 12 mph ()    
Max Wind Speed 23 mph    
Max Gust Speed 33 mph    
Visibility 6.4 miles    
Events      
Averages and records for this station are not official NWS values.
T = Trace of Precipitation, MM = Missing Value Source: Averaged Metar Reports

Daily Weather History Graph

Daily Weather History Graph

Search for Another Location

Airport or City:

Trip Planner

Search our weather history database for the weather conditions in past years. The results will help you decide how hot, cold, wet, or windy it might be!

Date:

Astronomy

Dec. 28, 2012 Rise Set
Actual Time 8:18 AM CET 5:22 PM CET
Civil Twilight 7:46 AM CET 5:54 PM CET
Nautical Twilight 7:10 AM CET 6:30 PM CET
Astronomical Twilight 6:36 AM CET 7:04 PM CET
Moon 5:46 PM CET (12/28) 8:00 AM CET (12/28)
Length of Visible Light 10h 08m
Length of Day
9h 03m
Full, 100% of the Moon is Illuminated
Dec 28
Full
Jan 5
Last Quarter
Jan 11
New
Jan 19
First Quarter
Jan 27
Full

Hourly Weather History & Observations

Time (CET) Temp. Windchill Dew Point Humidity Pressure Visibility Wind Dir Wind Speed Gust Speed Precip Events Conditions
12:00 AM 59.0 °F - 42.8 °F 55% 30.36 in 6.2 mi NW 16.1 mph - N/A   Partly Cloudy
12:30 AM 59.0 °F - 42.8 °F 55% 30.39 in 6.2 mi NW 23.0 mph - N/A   Partly Cloudy
1:00 AM 58 °F - 45 °F 52% 30.41 in 37 mi NW 20.7 mph - -   Clear
1:00 AM 57.2 °F - 44.6 °F 63% 30.39 in 6.2 mi NW 20.7 mph 33.4 mph N/A   Partly Cloudy
1:30 AM 55.4 °F - 46.4 °F 72% 30.39 in 6.2 mi NW 12.7 mph - N/A   Mostly Cloudy
2:00 AM 55.4 °F - 46.4 °F 72% 30.39 in 6.2 mi NNW 16.1 mph - N/A   Unknown
2:30 AM 55.4 °F - 46.4 °F 72% 30.39 in 6.2 mi NNW 19.6 mph - N/A   Unknown
3:00 AM 55.4 °F - 46.4 °F 72% 30.39 in 6.2 mi NNW 17.3 mph - N/A   Unknown
3:30 AM 55.4 °F - 44.6 °F 67% 30.39 in 6.2 mi NNW 18.4 mph - N/A   Unknown
4:00 AM 55.4 °F - 46.4 °F 72% 30.39 in 6.2 mi NNW 17.3 mph 29.9 mph N/A   Unknown
4:30 AM 55.4 °F - 46.4 °F 72% 30.39 in 6.2 mi NW 18.4 mph - N/A   Unknown
5:00 AM 55.4 °F - 44.6 °F 67% 30.39 in 6.2 mi NW 18.4 mph - N/A   Unknown
5:30 AM 55.4 °F - 44.6 °F 67% 30.39 in 6.2 mi NW 18.4 mph - N/A   Partly Cloudy
6:00 AM 55.4 °F - 44.6 °F 67% 30.39 in 6.2 mi NW 17.3 mph - N/A   Unknown
6:30 AM 55.4 °F - 44.6 °F 67% 30.39 in 6.2 mi NW 18.4 mph - N/A   Partly Cloudy
7:00 AM 56 °F - 44 °F 55% 30.42 in 12 mi NW 16.1 mph - -   Scattered Clouds
7:00 AM 57.2 °F - 44.6 °F 63% 30.39 in 6.2 mi NW 15.0 mph - N/A   Mostly Cloudy
7:30 AM 55.4 °F - 44.6 °F 67% 30.39 in 6.2 mi NW 16.1 mph - N/A   Mostly Cloudy
8:00 AM 57.2 °F - 42.8 °F 59% 30.39 in 6.2 mi NW 19.6 mph - N/A   Mostly Cloudy
8:22 AM 55.4 °F - 42.8 °F 63% 30.39 in 6.2 mi NW 17.3 mph - N/A   Scattered Clouds
9:00 AM 55.4 °F - 44.6 °F 67% 30.42 in 6.2 mi NNW 15.0 mph - N/A   Mostly Cloudy
9:30 AM 57.2 °F - 44.6 °F 63% 30.42 in 6.2 mi NNW 11.5 mph - N/A   Mostly Cloudy
10:00 AM 57.2 °F - 44.6 °F 63% 30.42 in 6.2 mi WSW 6.9 mph - N/A   Mostly Cloudy
10:30 AM 57.2 °F - 46.4 °F 67% 30.42 in 6.2 mi WNW 13.8 mph - N/A   Mostly Cloudy
11:00 AM 57.2 °F - 46.4 °F 67% 30.45 in 6.2 mi North 9.2 mph - N/A   Mostly Cloudy
11:30 AM 59.0 °F - 46.4 °F 63% 30.45 in 6.2 mi Variable 2.3 mph - N/A   Mostly Cloudy
12:00 PM 59.0 °F - 46.4 °F 63% 30.45 in 6.2 mi Variable 1.2 mph - N/A   Mostly Cloudy
12:30 PM 60.8 °F - 46.4 °F 59% 30.42 in 6.2 mi WNW 4.6 mph - N/A   Mostly Cloudy
12:52 PM 60.8 °F - 46.4 °F 59% 30.42 in 6.2 mi NNW 4.6 mph - N/A   Mostly Cloudy
1:00 PM 61 °F - 46 °F 48% 30.43 in 25 mi WNW 4.6 mph - -   Scattered Clouds
1:30 PM 62.6 °F - 46.4 °F 55% 30.39 in 6.2 mi SW 5.8 mph - N/A   Mostly Cloudy
2:30 PM 64.4 °F - 46.4 °F 52% 30.39 in 6.2 mi Variable 2.3 mph - N/A   Mostly Cloudy
3:00 PM 64.4 °F - 44.6 °F 49% 30.36 in 6.2 mi Variable 2.3 mph - N/A   Scattered Clouds
3:30 PM 64.4 °F - 41.0 °F 42% 30.36 in 6.2 mi East 2.3 mph - N/A   Scattered Clouds
4:00 PM 62.6 °F - 44.6 °F 52% 30.36 in 6.2 mi Variable 2.3 mph - N/A   Mostly Cloudy
4:30 PM 62.6 °F - 44.6 °F 52% 30.36 in 6.2 mi Variable 2.3 mph - N/A   Mostly Cloudy
5:00 PM 59.0 °F - 48.2 °F 67% 30.36 in 6.2 mi SE 4.6 mph - N/A   Mostly Cloudy
5:30 PM 57.2 °F - 48.2 °F 72% 30.36 in 6.2 mi Calm Calm - N/A   Scattered Clouds
6:00 PM 55.4 °F - 46.4 °F 72% 30.39 in 6.2 mi Variable 2.3 mph - N/A   Scattered Clouds
6:30 PM 51.8 °F - 46.4 °F 82% 30.39 in 6.2 mi North 3.5 mph - N/A   Scattered Clouds
7:00 PM 51 °F - 46 °F 77% 30.39 in 12 mi NNW 2.3 mph - -   Scattered Clouds
7:00 PM 51.8 °F - 46.4 °F 82% 30.39 in 6.2 mi Variable 2.3 mph - N/A   Scattered Clouds
7:30 PM 48.2 °F - 44.6 °F 87% 30.39 in 6.2 mi West 2.3 mph - N/A   Unknown
8:00 PM 51.8 °F - 44.6 °F 76% 30.36 in 6.2 mi SSW 5.8 mph - N/A   Unknown
8:30 PM 46.4 °F 45.2 °F 42.8 °F 87% 30.36 in 6.2 mi WSW 3.5 mph - N/A   Unknown
9:00 PM 46.4 °F 45.2 °F 42.8 °F 87% 30.36 in 6.2 mi SSW 3.5 mph - N/A   Unknown
9:30 PM 44.6 °F 41.4 °F 41.0 °F 87% 30.36 in 6.2 mi WSW 5.8 mph - N/A   Unknown
10:00 PM 44.6 °F 43.1 °F 42.8 °F 93% 30.36 in 6.2 mi SW 3.5 mph - N/A   Unknown
10:30 PM 44.6 °F 43.1 °F 42.8 °F 93% 30.33 in 6.2 mi West 3.5 mph - N/A   Unknown
11:00 PM 42.8 °F - 41.0 °F 93% 30.33 in 6.2 mi West 2.3 mph - N/A   Unknown
11:30 PM 42.8 °F 41.1 °F 39.2 °F 87% 30.33 in 6.2 mi WSW 3.5 mph - N/A   Unknown